• In Moldova, Republic
  • List of Countries
  • For 7 days
  • Water Temperature
  • Satellite Maps
  • Weather Map
  • Weather Widgets
  • user-avatar
    Login

    Hourly Weather Canberra

    Today, 20 September, Wednesday

    Time Temperature Precipitation Wind Pressure Humidity
    00:00 +4°C° 0 mm 1 mps 711 mmHg 91%
    01:00 +3°C° 0 mm 1 mps 711 mmHg 91%
    02:00 +3°C° 0 mm 1 mps 711 mmHg 91%
    03:00 +3°C° 0 mm 1 mps 711 mmHg 91%
    04:00 +1°C° 0 mm 0 mps 711 mmHg 91%
    05:00 +2°C° 0 mm 0 mps 711 mmHg 87%
    06:00 +3°C° 0 mm 0 mps 711 mmHg 83%
    07:00 +4°C° 0 mm 0 mps 712 mmHg 78%
    08:00 +8°C° 0 mm 1 mps 712 mmHg 67%
    09:00 +11°C° 0 mm 1 mps 712 mmHg 56%
    10:00 +14°C° 0 mm 1 mps 712 mmHg 43%
    11:00 +16°C° 0 mm 1 mps 712 mmHg 41%
    12:00 +17°C° 0 mm 2 mps 711 mmHg 38%
    13:00 +19°C° 0 mm 2 mps 711 mmHg 35%
    14:00 +18°C° 0 mm 2 mps 711 mmHg 39%
    15:00 +18°C° 0 mm 3 mps 710 mmHg 43%
    16:00 +16°C° 0 mm 3 mps 710 mmHg 47%
    17:00 +14°C° 0 mm 2 mps 710 mmHg 59%
    18:00 +10°C° 0 mm 2 mps 710 mmHg 70%
    19:00 +8°C° 0 mm 1 mps 710 mmHg 82%
    20:00 +8°C° 0 mm 1 mps 710 mmHg 84%
    21:00 +7°C° 0 mm 1 mps 710 mmHg 86%
    22:00 +7°C° 0 mm 1 mps 710 mmHg 87%
    23:00 +6°C° 0 mm 1 mps 710 mmHg 87%

    Tomorrow, 21 September, Thursday

    Time Temperature Precipitation Wind Pressure Humidity
    00:00 +6°C° 0 mm 1 mps 710 mmHg 86%
    01:00 +6°C° 0 mm 1 mps 709 mmHg 85%
    02:00 +6°C° 0 mm 1 mps 709 mmHg 83%
    03:00 +6°C° 0 mm 1 mps 709 mmHg 81%
    04:00 +6°C° 0 mm 1 mps 709 mmHg 79%
    05:00 +6°C° 0 mm 1 mps 709 mmHg 74%
    06:00 +7°C° 0 mm 1 mps 709 mmHg 69%
    07:00 +8°C° 0 mm 1 mps 709 mmHg 64%
    08:00 +12°C° 0 mm 2 mps 709 mmHg 55%
    09:00 +15°C° 0 mm 2 mps 709 mmHg 45%
    10:00 +19°C° 0 mm 2 mps 709 mmHg 35%
    11:00 +20°C° 0 mm 3 mps 709 mmHg 34%
    12:00 +21°C° 0 mm 3 mps 709 mmHg 34%
    13:00 +22°C° 0 mm 4 mps 708 mmHg 33%
    14:00 +22°C° 0 mm 4 mps 708 mmHg 37%
    15:00 +21°C° 0 mm 4 mps 707 mmHg 41%
    16:00 +21°C° 0 mm 4 mps 707 mmHg 44%
    17:00 +18°C° 0 mm 3 mps 707 mmHg 54%
    18:00 +15°C° 0 mm 2 mps 707 mmHg 64%
    19:00 +13°C° 0 mm 1 mps 707 mmHg 74%
    20:00 +12°C° 0 mm 1 mps 707 mmHg 74%
    21:00 +12°C° 0 mm 1 mps 707 mmHg 75%
    22:00 +11°C° 0 mm 1 mps 707 mmHg 75%
    23:00 +11°C° 0 mm 1 mps 707 mmHg 74%

    Day after tomorrow, 22 September, Friday

    Time Temperature Precipitation Wind Pressure Humidity
    00:00 +11°C° 0 mm 1 mps 707 mmHg 73%
    01:00 +9°C° 0 mm 2 mps 707 mmHg 71%
    02:00 +10°C° 0 mm 2 mps 707 mmHg 68%
    03:00 +10°C° 0 mm 2 mps 707 mmHg 64%
    04:00 +10°C° 0 mm 2 mps 707 mmHg 60%
    05:00 +10°C° 0 mm 2 mps 707 mmHg 59%
    06:00 +11°C° 0 mm 1 mps 707 mmHg 59%
    07:00 +12°C° 0 mm 1 mps 707 mmHg 58%
    08:00 +14°C° 0 mm 2 mps 707 mmHg 51%
    09:00 +17°C° 0 mm 3 mps 708 mmHg 43%
    10:00 +20°C° 0 mm 3 mps 708 mmHg 36%
    11:00 +21°C° 0 mm 4 mps 707 mmHg 34%
    12:00 +22°C° 0 mm 4 mps 707 mmHg 32%
    13:00 +25°C° 0 mm 5 mps 707 mmHg 31%
    14:00 +23°C° 0 mm 4 mps 706 mmHg 34%
    15:00 +23°C° 0 mm 4 mps 706 mmHg 37%
    16:00 +22°C° 0 mm 4 mps 705 mmHg 40%
    17:00 +20°C° 0 mm 3 mps 705 mmHg 48%
    18:00 +17°C° 0 mm 2 mps 705 mmHg 57%
    19:00 +15°C° 0 mm 1 mps 705 mmHg 66%
    20:00 +14°C° 0 mm 1 mps 705 mmHg 64%
    21:00 +14°C° 0 mm 2 mps 705 mmHg 63%
    22:00 +13°C° 0 mm 2 mps 705 mmHg 62%
    23:00 +13°C° 0 mm 2 mps 704 mmHg 58%

    23 September, Saturday

    Time Temperature Precipitation Wind Pressure Humidity
    00:00 +13°C° 0 mm 2 mps 704 mmHg 55%
    01:00 +12°C° 0 mm 2 mps 704 mmHg 51%
    02:00 +12°C° 0 mm 1 mps 703 mmHg 50%
    03:00 +11°C° 0 mm 1 mps 703 mmHg 49%
    04:00 +11°C° 0 mm 1 mps 702 mmHg 47%
    05:00 +11°C° 0 mm 1 mps 703 mmHg 48%
    06:00 +12°C° 0 mm 1 mps 703 mmHg 48%
    07:00 +12°C° 0 mm 1 mps 703 mmHg 49%
    08:00 +15°C° 0 mm 2 mps 703 mmHg 44%
    09:00 +18°C° 0 mm 3 mps 703 mmHg 39%
    10:00 +22°C° 0 mm 3 mps 703 mmHg 35%
    11:00 +23°C° 0 mm 4 mps 702 mmHg 33%
    12:00 +25°C° 0 mm 5 mps 701 mmHg 32%
    13:00 +27°C° 0 mm 6 mps 700 mmHg 31%
    14:00 +26°C° 0.1 mm 5 mps 700 mmHg 36%
    15:00 +26°C° 0.1 mm 5 mps 699 mmHg 41%
    16:00 +25°C° 0.1 mm 5 mps 699 mmHg 47%
    17:00 +22°C° 0.1 mm 4 mps 698 mmHg 54%
    18:00 +20°C° 0.1 mm 4 mps 698 mmHg 62%
    19:00 +18°C° 0.1 mm 3 mps 697 mmHg 69%
    20:00 +18°C° 0 mm 3 mps 697 mmHg 69%
    21:00 +17°C° 0 mm 4 mps 698 mmHg 69%
    22:00 +17°C° 0 mm 4 mps 698 mmHg 69%
    23:00 +14°C° 0 mm 3 mps 698 mmHg 74%

    24 September, Sunday

    Time Temperature Precipitation Wind Pressure Humidity
    00:00 +13°C° 0 mm 3 mps 698 mmHg 78%
    01:00 +12°C° 0 mm 2 mps 698 mmHg 83%
    02:00 +11°C° 0 mm 3 mps 698 mmHg 82%
    03:00 +10°C° 0 mm 3 mps 698 mmHg 81%
    04:00 +10°C° 0 mm 4 mps 698 mmHg 80%
    05:00 +10°C° 0 mm 4 mps 699 mmHg 78%
    06:00 +9°C° 0 mm 5 mps 699 mmHg 77%
    07:00 +10°C° 0 mm 5 mps 699 mmHg 75%
    08:00 +11°C° 0 mm 6 mps 699 mmHg 67%
    09:00 +14°C° 0 mm 7 mps 700 mmHg 58%
    10:00 +15°C° 0 mm 8 mps 700 mmHg 49%
    11:00 +16°C° 0 mm 8 mps 700 mmHg 48%
    12:00 +16°C° 0 mm 8 mps 700 mmHg 47%
    13:00 +17°C° 0 mm 9 mps 699 mmHg 45%
    14:00 +17°C° 0 mm 8 mps 699 mmHg 45%
    15:00 +17°C° 0 mm 7 mps 699 mmHg 45%
    16:00 +17°C° 0 mm 7 mps 699 mmHg 44%
    17:00 +16°C° 0 mm 6 mps 699 mmHg 46%
    18:00 +15°C° 0 mm 5 mps 700 mmHg 47%
    19:00 +13°C° 0 mm 5 mps 700 mmHg 49%
    20:00 +12°C° 0 mm 4 mps 700 mmHg 54%
    21:00 +11°C° 0 mm 4 mps 700 mmHg 58%
    22:00 +10°C° 0 mm 4 mps 701 mmHg 63%
    23:00 +10°C° 0 mm 4 mps 701 mmHg 64%

    25 September, Monday

    Time Temperature Precipitation Wind Pressure Humidity
    00:00 +10°C° 0 mm 4 mps 701 mmHg 65%
    01:00 +8°C° 0 mm 4 mps 701 mmHg 67%
    02:00 +8°C° 0 mm 4 mps 701 mmHg 68%
    03:00 +7°C° 0 mm 4 mps 701 mmHg 70%
    04:00 +7°C° 0 mm 4 mps 701 mmHg 71%
    05:00 +7°C° 0 mm 4 mps 702 mmHg 70%
    06:00 +7°C° 0 mm 4 mps 702 mmHg 69%
    07:00 +9°C° 0 mm 3 mps 703 mmHg 69%
    08:00 +10°C° 0 mm 4 mps 703 mmHg 63%
    09:00 +12°C° 0 mm 5 mps 704 mmHg 58%
    10:00 +13°C° 0 mm 5 mps 704 mmHg 52%
    11:00 +14°C° 0 mm 5 mps 704 mmHg 53%
    12:00 +14°C° 0 mm 6 mps 704 mmHg 54%
    13:00 +14°C° 0 mm 6 mps 704 mmHg 55%
    14:00 +13°C° 0.2 mm 5 mps 704 mmHg 61%
    15:00 +12°C° 0.2 mm 5 mps 704 mmHg 67%
    16:00 +11°C° 0.2 mm 4 mps 704 mmHg 73%
    17:00 +10°C° 0 mm 4 mps 704 mmHg 79%
    18:00 +9°C° 0 mm 3 mps 705 mmHg 84%
    19:00 +8°C° 0 mm 2 mps 705 mmHg 90%
    20:00 +8°C° 0 mm 2 mps 705 mmHg 91%
    21:00 +8°C° 0 mm 1 mps 705 mmHg 93%
    22:00 +7°C° 0 mm 1 mps 705 mmHg 94%
    23:00 +7°C° 0 mm 1 mps 705 mmHg 92%
    Show more